894  
ASUS46 KPDT 231425  
RWRPDT  
PENDLETON REGIONAL WEATHER ROUNDUP  
NATIONAL WEATHER SERVICE PENDLETON OREGON  
700 AM PDT SAT SEP 23 2017  
 
NOTE: FAIR INDICATES FEW OR NO CLOUDS BELOW 12,000 FEET WITH NO  
SIGNIFICANT WEATHER AND/OR S TO VISIBILITY
.  
 
# INDICATES UNOFFICIAL STATION AND DATA  
 
WAZ520-231510-  
EAST SLOPES OF WASHINGTON CASCADES  
 
CITY SKY/WX TMP DP RH WIND PRES REMARKS
 
#BULLFROG N/A 49 43 80 W1 N/A  
#CLE ELUM HS N/A 47 40 76 CALM 29.97R  
#CLE ELUM LAKE N/A 46 37 71 CALM 30.00R  
#EASTON DOT N/A 45 42 89 CALM N/A  
#ELK HTS DOT N/A 46 46 100 CALM N/A  
#GLENWOOD N/A 40 39 96 CALM 30.06R  
#NELSON 3SW N/A 46 37 71 CALM 30.21R  
#NILE N/A 41 39 93 CALM 29.32R  
#TEANAWAY 4NE N/A 42 40 93 CALM N/A  
#TROUT LAKE 1NE N/A 42 41 96 CALM 30.05R  
#TROUT LAKE 1E N/A 40 39 96 CALM 30.07R  

 
 
WAZ521-231510-  
SIMCOE HIGHLANDS  
 
CITY SKY/WX TMP DP RH WIND PRES REMARKS
 
#BICKLETON HS N/A 46 39 76 W2 29.98S  
#SATUS PASS DOT N/A 41 35 79 N3 N/A  
#CENTERVILLE 1SWN/A 44 41 89 CALM 30.01R  
#GOLDENDALE 1NE N/A 44 37 76 NW5 N/A  
#GOLDENDALE 4W N/A 44 32 62 CALM 30.08R  
#GOODNOE HILLS N/A 49 47 93 NW6 N/A  
#LYLE 6NE N/A 49 47 93 E2 30.04S  
#PITT 4SE N/A 46 44 93 CALM 30.06S  

 
 
WAZ026-231510-  
KITTITAS VALLEY  
 
CITY SKY/WX TMP DP RH WIND PRES REMARKS
 
ELLENSBURG AP PTCLDY 45 40 82 E6 30.02R  
#ELLENSBURG CWU N/A 46 41 83 CALM 29.96R  
#ELLENSBURG 3NE N/A 44 41 89 CALM 28.11R  
#ELLENSBURG 1E N/A 43 41 93 CALM 30.05R  
#KITTITAS 3S N/A 41 39 93 CALM 30.01R  
#MANASTASH RDG N/A 48 48 100 W3 N/A  
#ROCKY CYN DOT N/A 49 43 80 W5 N/A  
#RYEGRASS DOT N/A 46 39 76 W5 N/A  

 
 
WAZ027-231510-  
YAKIMA VALLEY  
 
CITY SKY/WX TMP DP RH WIND PRES REMARKS
 
SUNNYSIDE AP PTCLDY 40 38 92 CALM 30.05R  
YAKIMA AIRPORT MOCLDY 45 40 82 CALM 30.04R  
YAKIMA-VAGABOND MOCLDY 46 40 79 CALM 30.01S  
#DONALD 2NE N/A 47 30 51 CALM 30.03R  
#GRANDVIEW N/A 44 41 89 CALM 30.06R  
#MABTON N/A 43 40 89 CALM 30.03S  
#MOXEE 2E N/A 43 N/A N/A CALM 30.00R  
#NACHES 2SW N/A 50 42 74 SW2 30.03S  
#OUTLOOK DOT N/A 44 42 93 CALM 30.00R  
#PARKER DOT N/A 47 43 86 CALM 30.02R  
#TERRACE HTS N/A 45 41 86 CALM 29.99S  
#TOPPENISH N/A 44 41 89 CALM 29.96R  
#I82 S UMTANUM RN/A 46 39 76 NE3 N/A  
#UNION GAP DOT N/A 45 41 86 CALM 30.07R  
#W YAKIMA N/A 49 41 74 CALM 30.03R  
#WHITE SWAN 5E N/A 42 39 89 CALM 30.04R  
#WILEY CITY 3W N/A 46 36 68 CALM 30.00R  
#ZILLAH DOT N/A 43 41 93 E1 N/A  

 
 
WAZ028-231510-  
LOWER COLUMBIA BASIN...WASHINGTON  
 
CITY SKY/WX TMP DP RH WIND PRES REMARKS
 
PASCO PTCLDY 47 42 83 CALM 30.05R  
PROSSER AWOS N/A 43 41 93 CALM 30.08R  
RICHLAND AWOS PTCLDY 48 46 93 CALM 30.05R  
#BENTON CITY N/A 46 40 79 CALM 29.95R  
#CONNELL 5N N/A 45 41 86 NE2 30.04R  
#CONNELL 5NW N/A 43 39 86 E1 29.99R  
#ELTOPIA 6NW N/A 46 42 86 CALM 29.00S  
#KAHLOTUS N/A 45 42 89 S7 30.03S  
#KENNEWICK 3S N/A 51 43 74 SE1 30.04R  
#PATERSON N/A 46 42 86 CALM 30.03R  
#PROSSER DOT N/A 46 45 96 CALM 30.04R  
#SAGEMOOR 2W N/A 46 41 83 CALM 29.90R  
#TOUCHET 2S N/A 42 40 93 CALM 30.04R  
#WEST PASCO N/A 45 41 86 CALM 30.04R  

 
 
WAZ029-231510-  
FOOTHILLS OF THE BLUES...WASHINGTON  
 
CITY SKY/WX TMP DP RH WIND PRES REMARKS
 
WALLA WALLA AP CLOUDY 52 43 71 E7 30.05R  
#CLYDE 6NW N/A 50 42 74 CALM 30.03S  
#DAYTON SCHOOL N/A 49 40 71 CALM 30.06R  
#DELANEY DOT N/A 46 43 89 CALM 30.07  
#LOWDEN 2SE N/A 45 43 93 CALM 30.02R  
#PLEASANT VIEW 1N/A 48 41 77 CALM 30.07S  
#PRESCOTT N/A 46 44 93 CALM 30.04R  
#WAITSBURG 6SSE N/A 48 42 80 E1 30.07R  
#WALLA WALLA 5E N/A 50 44 80 NE1 N/A  
#WALLA WALLA U N/A 49 44 83 CALM 30.05R  
#WHITMAN MISSIONN/A 45 42 89 CALM 30.06R  

 
 
WAZ030-231510-  
BLUE MOUNTAINS...WASHINGTON  
 
CITY SKY/WX TMP DP RH WIND PRES REMARKS
 
#DIXIE 5SE N/A 48 39 71 N1 29.97S  

 
 
ORZ009-041-WAZ024-231510-  
COLUMBIA RIVER GORGE  
 
CITY SKY/WX TMP DP RH WIND PRES REMARKS
 
THE DALLES AP CLOUDY 52 48 86 SW3 30.04S  
#CELILO DOT N/A 56 46 69 SW3 N/A  
#LYLE N/A 53 50 89 N3 30.06R  
#MARYHILL N/A 52 48 86 N2 29.91  
#MURDOCK N/A 55 51 86 NW8 30.01R  
#RUFUS DOT N/A 54 N/A N/A S8 N/A  
#SMITHVILLE N/A 54 50 86 N2 29.99R  
 

 
 
ORZ510-231510-  
NORTH CENTRAL OREGON  
 
CITY SKY/WX TMP DP RH WIND PRES REMARKS
 
#ANTELOPE N/A 39 36 89 NE1 29.94R  
#CHENOWITH 1W N/A 47 45 93 W15 N/A WCI 41  
#COW CYN RST AREN/A 45 42 89 SE2 N/A  
#DUFUR N/A 44 41 89 CALM 30.00S  
#DUFUR 9E N/A 52 40 63 SW1 30.08R  
#GRASS VALLEY 1SN/A 43 40 89 CALM 30.07R  
#KENT DOT N/A 42 35 76 S8 N/A  
#MAUPIN SCHOOL N/A 48 43 83 CALM 30.11R  
#MORO SCHOOL N/A 47 46 96 CALM 30.04R  
#SHANIKO 5WSW N/A 43 33 67 SE8 N/A  
#SHANIKO 4NW N/A 44 38 79 S2 30.05R  
#TYGH VALLEY 2NEN/A 45 41 86 CALM 30.04S  
#WAPANITIA AIRPON/A 46 42 86 CALM 30.06R  
#WASCO DOT N/A 45 42 89 SE1 N/A  
#WASCO 5NE N/A 47 41 79 CALM 30.03R  

 
 
ORZ511-231510-  
CENTRAL OREGON  
 
CITY SKY/WX TMP DP RH WIND PRES REMARKS
 
BEND AIRPORT MOCLDY 41 36 82 SW5 30.10R  
MADRAS AIRPORT PTCLDY N/A N/A N/A SE6 30.10R  
PRINEVILLE AP MOCLDY 32 32 100 CALM 30.10R  
REDMOND AIRPORT MOCLDY 38 32 79 SE3 30.08R  
#ASHWOOD SCHOOL N/A 40 37 89 CALM 30.04R  
#BEND 1SW N/A 36 34 92 NE1 N/A  
#BEND-AWBREY N/A 41 36 82 S3 30.08R  
#BEND-KIM LN N/A 37 34 89 CALM 30.02R  
#CULVER N/A 41 37 86 CALM 29.95R  
#CULVER 8W N/A 42 36 79 CALM 30.07R  
#LAKE BILLY CHINN/A 42 N/A N/A CALM 30.16R  
#MADRAS 4S N/A 44 11 26 S3 N/A  
#POWELL BUTTE N/A 41 38 89 CALM 30.02R  
#PRINEVILLE N/A 36 34 92 CALM 30.19R  
#PRINEVILLE 3N N/A 36 34 92 CALM 30.10R  
#WARM SPRINGS N/A 43 40 89 CALM 29.93R  
 

 
 
 
ORZ509-231510-  
EAST SLOPES OF OREGON CASCADES  
 
CITY SKY/WX TMP DP RH WIND PRES REMARKS
 
SISTERS AWOS N/A 36 34 92 CALM N/A  
#CAMP SHERMAN N/A 34 31 89 CALM 30.17R  
#LA PINE 4NW N/A 28 25 88 CALM 30.15R  
#LAVA BUTTE DOT N/A 31 30 96 NE1 N/A  
#SISTERS ODOT N/A 35 32 89 CALM N/A  
#SISTERS 3N N/A 35 30 82 CALM 30.09S  
#SUNRIVER N/A 31 29 92 CALM 30.12R  
#TUMALO 3W N/A 42 35 76 W2 29.95R  
#WANOGA BUTTE D N/A 35 31 85 CALM N/A  
 

 
 
ORZ044-231510-  
LOWER COLUMBIA BASIN...OREGON  
 
CITY SKY/WX TMP DP RH WIND PRES REMARKS
 
HERMISTON MOCLDY 41 40 96 SE6 30.05R  
#BOARDMAN SCHOOLN/A 43 40 89 CALM 30.04R  
#BOARDMAN 8SW N/A 46 42 86 NW1 30.06R  
#ECHO 8SW N/A 47 41 79 S1 30.05R  
#I-84 EX 198 DOTN/A 46 40 79 NE8 N/A  
#IONE SCHOOL N/A 46 27 47 CALM 30.06S  
#UMATILLA N/A 44 39 82 CALM 29.98R  

 
 
ORZ507-231510-  
NORTHERN FOOTHILLS OF THE BLUES  
 
CITY SKY/WX TMP DP RH WIND PRES REMARKS
 
PENDLETON AIRPT PTCLDY 43 38 82 SE12 30.05R WCI 37  
#ADAMS 3WNW N/A 34 32 92 CALM 30.06R  
#ATHENA N/A 41 38 89 CALM 30.09R  
#CAYUSE N/A 45 40 82 E8 30.05S  
#HELIX SCHOOL N/A 36 34 92 CALM 30.07R  
#HELIX 3N N/A 43 39 86 S7 30.02R  
#HOLDMAN 5SE N/A 44 39 82 S1 30.04R  
#HOLDMAN 6E N/A 43 39 86 CALM 29.86R  
#M-F GROVE ELEM N/A 49 38 66 CALM 30.02R  
#M-FREEWATER 5SEN/A 47 40 76 NE2 30.05R  
#PENDLETON DNTN N/A 39 33 79 E2 30.07R  
#PDT AQUATIC CTRN/A 40 36 85 CALM 30.05R  
#PDT SUNRIDGE N/A 38 35 89 CALM 30.08R  
#PENDLETON 7NW N/A 41 36 82 E7 29.40F  
#PILOT ROCK N/A 42 36 79 CALM 30.08R  
#TUTUILLA N/A 36 34 92 CALM 30.10S  
#UMAPINE 2E N/A 45 41 86 CALM 30.03R  
#WESTON SCHOOL N/A 46 37 71 CALM 29.99R  
 

 
 
ORZ508-231510-  
SOUTHERN FOOTHILLS OF THE BLUES  
 
CITY SKY/WX TMP DP RH WIND PRES REMARKS
 
LEXINGTON MOCLDY 46 37 71 E9 30.09R  
#AJAX N/A 48 34 58 W1 30.19S  
#FOSSIL SCHOOL N/A 37 35 92 CALM 30.01R  
#HEPPNER EOC N/A 43 37 79 E6 30.00R  
#HEPPNER 4NE N/A 44 37 76 CALM 30.06R  
#LEXINGTON 2SE N/A 46 37 71 SE7 30.02R  
#MIKKALO N/A 48 38 68 S5 30.14R  
#OLEX 4N N/A 45 41 86 S2 30.03R  
#RUGGS 5NE N/A 41 37 86 NW1 30.20S  
#RUGGS 2SW N/A 44 36 73 SW7 30.08R  
 

 
 
ORZ502-503-231510-  
BLUE MOUNTAINS  
 
CITY SKY/WX TMP DP RH WIND PRES REMARKS
 
MEACHAM PTCLDY 28 26 92 CALM 30.06R  
#BATTLE MTN DOT N/A 31 31 100 S2 N/A  
#GRANITE N/A 28 23 81 CALM 30.01R  
#GREENHORN 9SW N/A 23 22 96 CALM 26.28R  
#HEPPNER 15SE N/A 32 30 92 CALM 29.97R  
#LADD CYN SMT N/A 30 29 96 S8 N/A  
#LADD CREEK ODOTN/A 33 32 96 SW2 N/A  
#LONG CREEK HS N/A 30 30 100 CALM 30.08R  
#N POWDER DOT N/A 29 29 100 CALM N/A  
#PIKES PEAK N/A 46 37 71 CALM 27.99S  
#TOLLGATE N/A 34 32 92 CALM 29.91R  
#TROY SCHOOL N/A 45 42 89 CALM 29.96R  
#UKIAH N/A 26 25 96 CALM 30.09R  
#WESTON 4E N/A 41 37 86 E3 30.04R  

 
 
ORZ505-231510-  
JOHN DAY BASIN  
 
CITY SKY/WX TMP DP RH WIND PRES REMARKS
 
JOHN DAY CLEAR 32 30 92 CALM 30.10R  
#JOHN DAY KJDY N/A 29 N/A N/A N1 29.10R  
#ANTELOPE 9ESE N/A 42 38 86 CALM N/A  
#DAYVILLE SCHOOLN/A 32 29 89 CALM 30.07R  
#MITCHELL N/A 37 36 96 E2 30.23R  
#MONUMENT HS N/A 31 28 88 CALM 30.07R  
#MT. VERNON 5SE N/A 33 31 92 CALM 30.03R  
#SPRAY SCHOOL N/A 36 N/A N/A CALM N/A  
#WINLOCK N/A 40 36 85 CALM 30.04R  

 
 
ORZ506-231510-  
OCHOCO AND JOHN DAY HIGHLANDS  
 
CITY SKY/WX TMP DP RH WIND PRES REMARKS
 
#HORSE RIDGE DO N/A 22 19 88 CALM N/A  
#IZEE 6NW N/A 22 21 96 CALM N/A  
#PAULINA ODOT N/A 24 22 92 CALM N/A  
#PINE MTN OBS N/A 33 32 96 CALM N/A  
#PRAIRIE CITY N/A 24 21 88 CALM 30.24  
#SENECA N/A 19 N/A N/A CALM N/A  
#SENECA 9NW N/A 23 22 96 CALM 30.11R  

 
 
ORZ049-231510-  
GRANDE RONDE VALLEY  
 
CITY SKY/WX TMP DP RH WIND PRES REMARKS
 
LA GRANDE FOG 32 30 92 CALM 30.11R VSB 1/2  
#COVE N/A 33 33 100 N1 30.11R  
#COVE SCHOOL N/A 32 31 96 CALM 30.10R  
#COVE 6NW N/A 36 34 92 CALM 30.13R  
#ELGIN 3N N/A 38 37 96 CALM 30.49R  
#ELGIN 1E N/A 39 34 82 CALM N/A  
#IMBLER SCHOOL N/A 34 33 96 CALM 30.05R  
#ISLAND CITY 4N N/A 49 48 96 CALM 30.10R  
#LA GRANDE-LEFFEN/A 36 35 96 NW3 30.48R  
#UNION 1S N/A 33 32 96 CALM 30.12R  

 
 
ORZ050-231510-  
WALLOWA COUNTY  
 
CITY SKY/WX TMP DP RH WIND PRES REMARKS
 
JOSEPH AIRPORT MOCLDY 32 32 100 CALM 30.08S  
#ENTERPRISE HS N/A 29 27 92 CALM 30.05R  
#IMNAHA SCHOOL N/A 42 39 89 SE1 30.10R  
#IMNAHA 10S N/A 38 34 85 S3 30.08R  
#JOSEPH N/A 33 32 96 CALM 30.26R  
#JOSEPH 3N N/A 28 26 92 CALM 30.09R  
#JOSEPH 3W N/A 33 33 100 CALM 30.42R  
#LOSTINE N/A 30 27 88 CALM 29.94R  
#LOSTINE 3SE N/A 32 30 92 W3 30.11R  
#MT HOWARD 8000 N/A 26 25 96 CALM 30.02R  
#PROMISE 1S N/A 37 36 96 CALM 30.19R  
#WALLOWA LAKE N/A 37 32 82 CALM 30.10R  
#WALLOWA SCHOOL N/A 34 33 96 CALM 30.07R  
 

 
 
CLICK HERE TO GO TO PREVIOUS BULLETINS.

The Nexlab OR Page
The Nexlab WA Page Main Text Page